This is the latest recevied weather packets stored in our database for station/object HB9FHL-13. If no packets are shown the sender has not sent any weather packets the latest 10 day(s).
| Time | Temp. | Humidity | Pressure | Rain* | Wind** | Luminosity | Snow |
|---|---|---|---|---|---|---|---|
| 1788640507 | 20° C | - | 1027.4 hPa | 0 mm | - | - | - |
| 1788640206 | 20° C | - | 1027.9 hPa | 0 mm | - | - | - |
| 1788639906 | 19.44° C | - | 1026.6 hPa | 0 mm | - | - | - |
| 1788639663 | 20° C | - | 1031.1 hPa | 0 mm | - | - | - |
| 1788639605 | 20° C | - | 1031.1 hPa | 0 mm | - | - | - |
| 1788639305 | 19.44° C | - | 1028.1 hPa | 0 mm | - | - | - |
| 1788638703 | 18.89° C | - | 1028.3 hPa | 0 mm | - | - | - |
| 1788638101 | 18.89° C | - | 1024.9 hPa | 0 mm | - | - | - |
| 1788637801 | 18.89° C | - | 1031.1 hPa | 0 mm | - | - | - |
| 1788637500 | 20° C | - | 1028.8 hPa | 0 mm | - | - | - |
| 1788637200 | 20° C | - | 1028.5 hPa | 0 mm | - | - | - |
| 1788636899 | 19.44° C | - | 1028.4 hPa | 0 mm | - | - | - |
| 1788636599 | 19.44° C | - | 1028.8 hPa | 0 mm | - | - | - |
| 1788636300 | 20.56° C | - | 1026.6 hPa | 0 mm | - | - | - |
| 1788635998 | 19.44° C | - | 1027.1 hPa | 0 mm | - | - | - |
| 1788635397 | 19.44° C | - | 1027.2 hPa | 0 mm | - | - | - |
| 1788635096 | 19.44° C | - | 1026.7 hPa | 0 mm | - | - | - |
| 1788634797 | 20° C | - | 1028.4 hPa | 0 mm | - | - | - |
| 1788634495 | 19.44° C | - | 1028.4 hPa | 0 mm | - | - | - |
| 1788634194 | 18.89° C | - | 1029.9 hPa | 0 mm | - | - | - |
| 1788633893 | 20° C | - | 1027.4 hPa | 0 mm | - | - | - |
| 1788633625 | 20° C | - | 1029.8 hPa | 0 mm | - | - | - |
| 1788633593 | 20° C | - | 1029.8 hPa | 0 mm | - | - | - |
| 1788633292 | 20° C | - | 1027.7 hPa | 0 mm | - | - | - |
| 1788632992 | 19.44° C | - | 1026.5 hPa | 0 mm | - | - | - |
* Rain since midnight (hover to see other rain measurements)
** Current wind speed in m/s (hover to see current wind gust speed)